Time,TemperatureF,DewpointF,PressureIn,WindDirection,WindDirectionDegrees,WindSpeedMPH,WindSpeedGustMPH,Humidity,HourlyPrecipIn,Conditions,Clouds,dailyrainin,SoftwareType,DateUTC
2013-09-29 00:07:00,59.7,35.4,29.31,SE,134,0.0,2.0,40,0.00,,,0.00,meteohub,2013-09-29 07:07:00,
2013-09-29 00:12:00,59.9,35.6,29.31,East,79,0.0,0.0,40,0.00,,,0.00,meteohub,2013-09-29 07:12:00,
2013-09-29 00:17:00,60.1,35.1,29.31,SE,134,0.0,2.0,39,0.00,,,0.00,meteohub,2013-09-29 07:17:00,
2013-09-29 00:22:00,60.1,35.1,29.31,East,100,0.0,2.0,39,0.00,,,0.00,meteohub,2013-09-29 07:22:00,
2013-09-29 00:27:00,60.3,35.2,29.31,ESE,108,0.0,2.0,39,0.00,,,0.00,meteohub,2013-09-29 07:27:00,
2013-09-29 00:32:00,60.3,34.5,29.31,ESE,116,0.0,2.0,38,0.00,,,0.00,meteohub,2013-09-29 07:32:00,
2013-09-29 00:37:00,60.4,34.7,29.31,SE,129,0.0,2.0,38,0.00,,,0.00,meteohub,2013-09-29 07:37:00,
2013-09-29 00:42:00,60.4,34.7,29.31,SE,129,0.0,0.0,38,0.00,,,0.00,meteohub,2013-09-29 07:42:00,
2013-09-29 00:47:00,60.6,35.6,29.31,ESE,109,0.0,0.0,39,0.00,,,0.00,meteohub,2013-09-29 07:47:00,
2013-09-29 00:52:00,60.6,35.6,29.31,ENE,70,0.0,0.0,39,0.00,,,0.00,meteohub,2013-09-29 07:52:00,
2013-09-29 00:57:00,60.4,35.4,29.31,ENE,70,0.0,0.0,39,0.00,,,0.00,meteohub,2013-09-29 07:57:00,
2013-09-29 01:02:00,60.3,35.2,29.31,ENE,70,0.0,0.0,39,0.00,,,0.00,meteohub,2013-09-29 08:02:00,
2013-09-29 01:07:00,60.1,35.1,29.31,ENE,70,0.0,0.0,39,0.00,,,0.00,meteohub,2013-09-29 08:07:00,
2013-09-29 01:12:00,60.3,35.2,29.31,ENE,70,0.0,0.0,39,0.00,,,0.00,meteohub,2013-09-29 08:12:00,
2013-09-29 01:17:00,60.3,35.2,29.31,ENE,70,0.0,0.0,39,0.00,,,0.00,meteohub,2013-09-29 08:17:00,
2013-09-29 01:22:00,60.3,35.2,29.31,ENE,70,0.0,0.0,39,0.00,,,0.00,meteohub,2013-09-29 08:22:00,
2013-09-29 01:27:00,60.1,35.1,29.31,ENE,70,0.0,0.0,39,0.00,,,0.00,meteohub,2013-09-29 08:27:00,
2013-09-29 01:32:00,59.9,34.9,29.31,ENE,70,0.0,0.0,39,0.00,,,0.00,meteohub,2013-09-29 08:32:00,
2013-09-29 01:38:00,59.7,35.4,29.31,ENE,70,0.0,0.0,40,0.00,,,0.00,meteohub,2013-09-29 08:38:00,
2013-09-29 01:44:00,59.7,34.7,29.31,ENE,70,0.0,0.0,39,0.00,,,0.00,meteohub,2013-09-29 08:44:00,
2013-09-29 01:50:00,59.5,34.5,29.31,ENE,70,0.0,0.0,39,0.00,,,0.00,meteohub,2013-09-29 08:50:00,
2013-09-29 01:56:00,59.4,34.3,29.31,ENE,70,0.0,0.0,39,0.00,,,0.00,meteohub,2013-09-29 08:56:00,
2013-09-29 02:02:00,59.4,35.1,29.31,ENE,70,0.0,0.0,40,0.00,,,0.00,meteohub,2013-09-29 09:02:00,
2013-09-29 02:07:00,59.2,35.4,29.31,ENE,69,0.0,0.0,41,0.00,,,0.00,meteohub,2013-09-29 09:07:00,
2013-09-29 02:12:00,59.2,35.4,29.31,North,357,0.0,0.0,41,0.00,,,0.00,meteohub,2013-09-29 09:12:00,
2013-09-29 02:17:00,59.0,35.4,29.31,North,357,0.0,0.0,41,0.00,,,0.00,meteohub,2013-09-29 09:17:00,
2013-09-29 02:22:00,59.0,35.4,29.31,North,357,0.0,0.0,41,0.00,,,0.00,meteohub,2013-09-29 09:22:00,
2013-09-29 02:27:00,58.8,36.3,29.31,North,357,0.0,0.0,43,0.00,,,0.00,meteohub,2013-09-29 09:27:00,
2013-09-29 02:32:00,58.8,36.3,29.31,North,357,0.0,0.0,43,0.00,,,0.00,meteohub,2013-09-29 09:32:00,
2013-09-29 02:37:00,58.8,36.3,29.31,North,357,0.0,0.0,43,0.00,,,0.00,meteohub,2013-09-29 09:37:00,
2013-09-29 02:42:00,58.8,35.8,29.31,North,357,0.0,0.0,42,0.00,,,0.00,meteohub,2013-09-29 09:42:00,
2013-09-29 02:47:00,58.8,35.8,29.31,North,357,0.0,0.0,42,0.00,,,0.00,meteohub,2013-09-29 09:47:00,
2013-09-29 02:52:00,58.8,35.8,29.31,North,357,0.0,0.0,42,0.00,,,0.00,meteohub,2013-09-29 09:52:00,
2013-09-29 02:57:00,59.0,35.4,29.31,SSW,202,0.0,0.0,41,0.00,,,0.00,meteohub,2013-09-29 09:57:00,
2013-09-29 03:02:00,59.2,35.4,29.31,SSW,202,0.0,0.0,41,0.00,,,0.00,meteohub,2013-09-29 10:02:00,
2013-09-29 03:07:00,59.2,35.4,29.31,SW,221,0.0,0.0,41,0.00,,,0.00,meteohub,2013-09-29 10:07:00,
2013-09-29 03:12:00,59.2,35.4,29.31,SW,226,0.0,0.0,41,0.00,,,0.00,meteohub,2013-09-29 10:12:00,
2013-09-29 03:17:00,59.0,35.4,29.31,SW,224,0.0,0.0,41,0.00,,,0.00,meteohub,2013-09-29 10:17:00,
2013-09-29 03:22:00,59.0,35.4,29.31,SW,224,0.0,0.0,41,0.00,,,0.00,meteohub,2013-09-29 10:22:00,
2013-09-29 03:27:00,59.0,35.4,29.31,SW,224,0.0,0.0,41,0.00,,,0.00,meteohub,2013-09-29 10:27:00,
2013-09-29 03:32:00,59.0,35.4,29.31,SW,224,0.0,0.0,41,0.00,,,0.00,meteohub,2013-09-29 10:32:00,
2013-09-29 03:37:00,59.0,36.0,29.31,SW,224,0.0,0.0,42,0.00,,,0.00,meteohub,2013-09-29 10:37:00,
2013-09-29 03:42:00,59.0,35.4,29.31,SW,224,0.0,0.0,41,0.00,,,0.00,meteohub,2013-09-29 10:42:00,
2013-09-29 03:47:00,59.0,36.0,29.31,SW,224,0.0,0.0,42,0.00,,,0.00,meteohub,2013-09-29 10:47:00,
2013-09-29 03:52:00,58.8,35.8,29.31,SW,224,0.0,0.0,42,0.00,,,0.00,meteohub,2013-09-29 10:52:00,
2013-09-29 03:57:00,58.6,35.6,29.31,SW,224,0.0,0.0,42,0.00,,,0.00,meteohub,2013-09-29 10:57:00,
2013-09-29 04:02:00,58.5,35.4,29.31,SW,224,0.0,0.0,42,0.00,,,0.00,meteohub,2013-09-29 11:02:00,
2013-09-29 04:07:00,58.6,36.9,29.31,SW,224,0.0,0.0,44,0.00,,,0.00,meteohub,2013-09-29 11:07:00,
2013-09-29 04:12:00,58.5,36.7,29.31,SW,224,0.0,0.0,44,0.00,,,0.00,meteohub,2013-09-29 11:12:00,
2013-09-29 04:17:00,58.3,37.0,29.31,SW,224,0.0,0.0,45,0.00,,,0.00,meteohub,2013-09-29 11:17:00,
2013-09-29 04:22:00,58.1,36.3,29.31,SW,224,0.0,0.0,44,0.00,,,0.00,meteohub,2013-09-29 11:22:00,
2013-09-29 04:27:00,57.9,36.7,29.28,SW,224,0.0,0.0,45,0.00,,,0.00,meteohub,2013-09-29 11:27:00,
2013-09-29 04:32:00,57.7,36.5,29.28,SW,224,0.0,0.0,45,0.00,,,0.00,meteohub,2013-09-29 11:32:00,
2013-09-29 04:37:00,57.6,36.3,29.28,SW,224,0.0,0.0,45,0.00,,,0.00,meteohub,2013-09-29 11:37:00,
2013-09-29 04:42:00,57.6,36.9,29.31,SW,224,0.0,0.0,46,0.00,,,0.00,meteohub,2013-09-29 11:42:00,
2013-09-29 04:47:00,57.7,37.0,29.31,SW,224,0.0,0.0,46,0.00,,,0.00,meteohub,2013-09-29 11:47:00,
2013-09-29 04:52:00,57.7,37.6,29.31,SW,224,0.0,0.0,47,0.00,,,0.00,meteohub,2013-09-29 11:52:00,
2013-09-29 04:57:00,57.7,37.0,29.28,SW,224,0.0,0.0,46,0.00,,,0.00,meteohub,2013-09-29 11:57:00,
2013-09-29 05:02:00,57.7,37.6,29.28,SW,224,0.0,0.0,47,0.00,,,0.00,meteohub,2013-09-29 12:02:00,
2013-09-29 05:07:00,57.6,37.4,29.28,SW,232,0.0,0.0,47,0.00,,,0.00,meteohub,2013-09-29 12:07:00,
2013-09-29 05:12:00,57.6,37.9,29.28,North,1,0.0,0.0,48,0.00,,,0.00,meteohub,2013-09-29 12:12:00,
2013-09-29 05:17:00,57.6,37.9,29.28,NNE,26,0.0,0.0,48,0.00,,,0.00,meteohub,2013-09-29 12:17:00,
2013-09-29 05:22:00,57.7,37.6,29.28,NNE,26,0.0,0.0,47,0.00,,,0.00,meteohub,2013-09-29 12:22:00,
2013-09-29 05:27:00,57.7,37.6,29.28,NNE,26,0.0,0.0,47,0.00,,,0.00,meteohub,2013-09-29 12:27:00,
2013-09-29 05:32:00,57.9,37.8,29.28,NNE,26,0.0,0.0,47,0.00,,,0.00,meteohub,2013-09-29 12:32:00,
2013-09-29 05:37:00,58.1,37.4,29.28,NNE,26,0.0,0.0,46,0.00,,,0.00,meteohub,2013-09-29 12:37:00,
2013-09-29 05:42:00,58.3,37.6,29.28,NNE,26,0.0,0.0,46,0.00,,,0.00,meteohub,2013-09-29 12:42:00,
2013-09-29 05:47:00,58.3,37.6,29.28,NNE,26,0.0,0.0,46,0.00,,,0.00,meteohub,2013-09-29 12:47:00,
2013-09-29 05:52:00,58.5,37.2,29.28,West,263,0.0,0.0,45,0.00,,,0.00,meteohub,2013-09-29 12:52:00,
2013-09-29 05:57:00,58.5,37.2,29.28,West,263,0.0,0.0,45,0.00,,,0.00,meteohub,2013-09-29 12:57:00,
2013-09-29 06:02:00,58.6,37.4,29.28,West,263,0.0,0.0,45,0.00,,,0.00,meteohub,2013-09-29 13:02:00,
2013-09-29 06:07:00,58.6,37.9,29.28,West,263,0.0,0.0,46,0.00,,,0.00,meteohub,2013-09-29 13:07:00,
2013-09-29 06:12:00,58.5,37.8,29.31,West,263,0.0,0.0,46,0.00,,,0.00,meteohub,2013-09-29 13:12:00,
2013-09-29 06:17:00,58.3,37.6,29.31,West,272,0.0,0.0,46,0.00,,,0.00,meteohub,2013-09-29 13:17:00,
2013-09-29 06:22:00,58.3,38.7,29.31,West,272,0.0,0.0,48,0.00,,,0.00,meteohub,2013-09-29 13:22:00,
2013-09-29 06:28:00,57.9,38.3,29.28,NNW,338,0.0,0.0,48,0.00,,,0.00,meteohub,2013-09-29 13:28:00,
2013-09-29 06:34:00,57.6,38.5,29.28,NNW,338,0.0,0.0,49,0.00,,,0.00,meteohub,2013-09-29 13:34:00,
2013-09-29 06:39:00,57.6,38.5,29.28,North,353,0.0,0.0,49,0.00,,,0.00,meteohub,2013-09-29 13:39:00,
2013-09-29 06:45:00,57.2,39.2,29.28,NE,46,0.0,0.0,51,0.00,,,0.00,meteohub,2013-09-29 13:45:00,
2013-09-29 06:51:00,57.2,39.2,29.28,NW,321,0.0,0.0,51,0.00,,,0.00,meteohub,2013-09-29 13:51:00,
2013-09-29 06:57:00,57.2,39.2,29.28,NW,321,0.0,0.0,51,0.00,,,0.00,meteohub,2013-09-29 13:57:00,
2013-09-29 07:02:00,57.0,39.6,29.28,WNW,290,0.0,0.0,52,0.00,,,0.00,meteohub,2013-09-29 14:02:00,
2013-09-29 07:07:00,56.8,39.9,29.28,NNE,20,0.0,0.0,53,0.00,,,0.00,meteohub,2013-09-29 14:07:00,
2013-09-29 07:12:00,56.7,39.7,29.28,NNE,29,0.0,0.0,53,0.00,,,0.00,meteohub,2013-09-29 14:12:00,
2013-09-29 07:17:00,56.7,40.3,29.28,NNE,13,0.0,0.0,54,0.00,,,0.00,meteohub,2013-09-29 14:17:00,
2013-09-29 07:22:00,56.7,40.6,29.28,NNE,13,0.0,4.0,55,0.00,,,0.00,meteohub,2013-09-29 14:22:00,
2013-09-29 07:27:00,56.8,40.5,29.28,NNE,13,0.0,4.0,54,0.00,,,0.00,meteohub,2013-09-29 14:27:00,
2013-09-29 07:32:00,56.8,39.9,29.28,WNW,295,0.0,4.0,53,0.00,,,0.00,meteohub,2013-09-29 14:32:00,
2013-09-29 07:38:00,56.8,40.5,29.28,WNW,295,0.0,0.0,54,0.00,,,0.00,meteohub,2013-09-29 14:38:00,
2013-09-29 07:43:00,57.0,40.1,29.28,WNW,295,0.0,0.0,53,0.00,,,0.00,meteohub,2013-09-29 14:43:00,
2013-09-29 07:48:00,57.0,40.1,29.28,WNW,295,0.0,0.0,53,0.00,,,0.00,meteohub,2013-09-29 14:48:00,
2013-09-29 07:54:00,57.2,40.3,29.28,WNW,295,0.0,0.0,53,0.00,,,0.00,meteohub,2013-09-29 14:54:00,
2013-09-29 08:00:00,57.2,40.3,29.28,West,279,0.0,0.0,53,0.00,,,0.00,meteohub,2013-09-29 15:00:00,
2013-09-29 08:06:00,57.4,40.8,29.28,WSW,239,0.0,0.0,54,0.00,,,0.00,meteohub,2013-09-29 15:06:00,
2013-09-29 08:12:00,57.4,40.8,29.31,WSW,237,0.0,0.0,54,0.00,,,0.00,meteohub,2013-09-29 15:12:00,
2013-09-29 08:17:00,57.4,41.4,29.31,WSW,252,3.0,0.0,55,0.00,,,0.00,meteohub,2013-09-29 15:17:00,
2013-09-29 08:22:00,57.4,41.9,29.31,WNW,284,3.0,4.0,56,0.00,,,0.00,meteohub,2013-09-29 15:22:00,
2013-09-29 08:27:00,57.4,42.3,29.28,WNW,288,4.0,4.0,57,0.00,,,0.00,meteohub,2013-09-29 15:27:00,
2013-09-29 08:32:00,57.4,42.8,29.28,WSW,241,0.0,4.0,58,0.00,,,0.00,meteohub,2013-09-29 15:32:00,
2013-09-29 08:37:00,57.4,42.8,29.28,WNW,295,0.0,6.0,58,0.00,,,0.00,meteohub,2013-09-29 15:37:00,
2013-09-29 08:43:00,57.4,42.8,29.31,WNW,286,0.0,6.0,58,0.00,,,0.00,meteohub,2013-09-29 15:43:00,
2013-09-29 08:49:00,57.6,43.3,29.31,West,275,0.0,3.0,59,0.00,,,0.00,meteohub,2013-09-29 15:49:00,
2013-09-29 08:55:00,57.6,43.3,29.31,WNW,290,0.0,3.0,59,0.00,,,0.00,meteohub,2013-09-29 15:55:00,
2013-09-29 09:01:00,57.6,43.3,29.31,WNW,290,0.0,3.0,59,0.00,,,0.00,meteohub,2013-09-29 16:01:00,
2013-09-29 09:07:00,57.7,43.9,29.31,WNW,290,0.0,2.0,60,0.00,,,0.00,meteohub,2013-09-29 16:07:00,
2013-09-29 09:13:00,57.9,44.6,29.31,WNW,282,0.0,2.0,61,0.00,,,0.00,meteohub,2013-09-29 16:13:00,
2013-09-29 09:21:00,57.9,45.0,29.31,WNW,282,0.0,3.0,62,0.00,,,0.00,meteohub,2013-09-29 16:21:00,
2013-09-29 09:27:00,58.1,45.1,29.31,WNW,282,0.0,3.0,62,0.00,,,0.00,meteohub,2013-09-29 16:27:00,
2013-09-29 09:32:00,58.3,45.3,29.31,WNW,282,0.0,0.0,62,0.00,,,0.00,meteohub,2013-09-29 16:32:00,
2013-09-29 09:37:00,58.5,45.9,29.31,WNW,282,0.0,0.0,63,0.00,,,0.00,meteohub,2013-09-29 16:37:00,
2013-09-29 09:42:00,58.5,45.9,29.31,WSW,252,0.0,0.0,63,0.00,,,0.00,meteohub,2013-09-29 16:42:00,
2013-09-29 09:47:00,58.6,46.0,29.31,WSW,256,0.0,0.0,63,0.00,,,0.00,meteohub,2013-09-29 16:47:00,
2013-09-29 09:52:00,58.8,46.6,29.31,WSW,256,0.0,0.0,64,0.00,,,0.00,meteohub,2013-09-29 16:52:00,
2013-09-29 09:57:00,58.8,46.6,29.31,West,259,0.0,0.0,64,0.00,,,0.00,meteohub,2013-09-29 16:57:00,
2013-09-29 10:02:00,59.2,46.9,29.31,WNW,285,0.0,0.0,64,0.00,,,0.00,meteohub,2013-09-29 17:02:00,
2013-09-29 10:07:00,59.2,46.9,29.31,West,273,0.0,0.0,64,0.00,,,0.00,meteohub,2013-09-29 17:07:00,
2013-09-29 10:12:00,59.2,46.9,29.31,ENE,64,0.0,0.0,64,0.00,,,0.00,meteohub,2013-09-29 17:12:00,
2013-09-29 10:18:00,59.4,47.1,29.31,ENE,64,0.0,3.0,64,0.00,,,0.00,meteohub,2013-09-29 17:18:00,
2013-09-29 10:24:00,59.5,47.8,29.31,ENE,64,0.0,3.0,65,0.00,,,0.00,meteohub,2013-09-29 17:24:00,
2013-09-29 10:30:00,59.5,47.8,29.31,ENE,64,0.0,0.0,65,0.00,,,0.00,meteohub,2013-09-29 17:30:00,
2013-09-29 10:36:00,59.9,48.6,29.31,ENE,64,0.0,0.0,66,0.00,,,0.00,meteohub,2013-09-29 17:36:00,
2013-09-29 10:42:00,60.1,48.7,29.31,SW,214,0.0,0.0,66,0.00,,,0.00,meteohub,2013-09-29 17:42:00,
2013-09-29 10:47:00,60.1,48.7,29.31,ENE,71,0.0,0.0,66,0.00,,,0.00,meteohub,2013-09-29 17:47:00,
2013-09-29 10:52:00,59.9,48.6,29.31,ENE,71,0.0,0.0,66,0.00,,,0.00,meteohub,2013-09-29 17:52:00,
2013-09-29 10:57:00,60.3,49.3,29.31,NW,311,0.0,0.0,67,0.00,,,0.00,meteohub,2013-09-29 17:57:00,
2013-09-29 11:03:00,60.6,49.6,29.31,SSW,211,0.0,0.0,67,0.00,,,0.00,meteohub,2013-09-29 18:03:00,
2013-09-29 11:09:00,61.0,50.0,29.31,WSW,249,0.0,0.0,67,0.00,,,0.00,meteohub,2013-09-29 18:09:00,
2013-09-29 11:15:00,61.3,50.4,29.31,SSW,207,0.0,0.0,67,0.00,,,0.00,meteohub,2013-09-29 18:15:00,
2013-09-29 11:21:00,61.3,50.4,29.31,ENE,57,0.0,0.0,67,0.00,,,0.00,meteohub,2013-09-29 18:21:00,
2013-09-29 11:27:00,61.3,50.4,29.31,South,190,0.0,6.0,67,0.00,,,0.00,meteohub,2013-09-29 18:27:00,
2013-09-29 11:32:00,61.3,50.4,29.31,SW,232,0.0,6.0,67,0.00,,,0.00,meteohub,2013-09-29 18:32:00,
2013-09-29 11:37:00,61.7,51.1,29.31,SSE,155,0.0,5.0,68,0.00,,,0.00,meteohub,2013-09-29 18:37:00,
2013-09-29 11:42:00,61.9,51.3,29.34,South,177,0.0,5.0,68,0.00,,,0.00,meteohub,2013-09-29 18:42:00,
2013-09-29 11:47:00,62.1,51.4,29.34,SW,232,0.0,5.0,68,0.00,,,0.00,meteohub,2013-09-29 18:47:00,
2013-09-29 11:52:00,62.2,51.6,29.34,WNW,282,0.0,5.0,68,0.00,,,0.00,meteohub,2013-09-29 18:52:00,
2013-09-29 11:57:00,62.4,51.3,29.31,NW,316,0.0,5.0,67,0.00,,,0.00,meteohub,2013-09-29 18:57:00,
2013-09-29 12:02:00,62.4,51.3,29.31,WSW,238,0.0,5.0,67,0.00,,,0.00,meteohub,2013-09-29 19:02:00,
2013-09-29 12:08:00,62.4,51.3,29.31,West,263,0.0,0.0,67,0.00,,,0.00,meteohub,2013-09-29 19:08:00,
2013-09-29 12:14:00,62.6,51.1,29.31,WSW,244,0.0,0.0,66,0.00,,,0.00,meteohub,2013-09-29 19:14:00,
2013-09-29 12:20:00,62.8,51.3,29.31,SW,217,0.0,0.0,66,0.00,,,0.00,meteohub,2013-09-29 19:20:00,
2013-09-29 12:26:00,63.0,51.1,29.31,NW,306,0.0,0.0,65,0.00,,,0.00,meteohub,2013-09-29 19:26:00,
2013-09-29 12:31:00,63.1,51.3,29.31,WNW,298,0.0,4.0,65,0.00,,,0.00,meteohub,2013-09-29 19:31:00,
2013-09-29 12:37:00,63.3,51.4,29.31,West,271,0.0,4.0,65,0.00,,,0.00,meteohub,2013-09-29 19:37:00,
2013-09-29 12:42:00,63.7,51.6,29.31,WSW,244,0.0,4.0,65,0.00,,,0.00,meteohub,2013-09-29 19:42:00,
2013-09-29 12:47:00,63.9,51.8,29.31,WSW,245,0.0,4.0,65,0.00,,,0.00,meteohub,2013-09-29 19:47:00,
2013-09-29 12:50:00,64.0,51.6,29.31,WSW,256,0.0,5.0,64,0.00,,,0.00,meteohub,2013-09-29 19:50:00,
2013-09-29 12:56:00,64.6,52.2,29.31,NW,324,0.0,5.0,64,0.00,,,0.00,meteohub,2013-09-29 19:56:00,
2013-09-29 13:02:00,65.5,53.4,29.31,SW,236,4.0,5.0,65,0.00,,,0.00,meteohub,2013-09-29 20:02:00,
2013-09-29 13:07:00,65.8,53.2,29.31,SW,218,0.0,4.0,64,0.00,,,0.00,meteohub,2013-09-29 20:07:00,
2013-09-29 13:12:00,66.0,53.1,29.31,SW,235,0.0,4.0,63,0.00,,,0.00,meteohub,2013-09-29 20:12:00,
2013-09-29 13:17:00,66.0,52.7,29.31,SW,234,0.0,4.0,62,0.00,,,0.00,meteohub,2013-09-29 20:17:00,
2013-09-29 13:22:00,66.2,52.9,29.31,SW,234,0.0,4.0,62,0.00,,,0.00,meteohub,2013-09-29 20:22:00,
2013-09-29 13:27:00,66.4,52.5,29.31,South,173,0.0,0.0,61,0.00,,,0.00,meteohub,2013-09-29 20:27:00,
2013-09-29 13:32:00,66.2,49.6,29.31,SSE,162,0.0,0.0,55,0.00,,,0.00,meteohub,2013-09-29 20:32:00,
2013-09-29 13:37:00,66.0,48.4,29.31,East,83,0.0,0.0,53,0.00,,,0.00,meteohub,2013-09-29 20:37:00,
2013-09-29 13:43:00,66.4,50.7,29.31,ENE,67,0.0,0.0,57,0.00,,,0.00,meteohub,2013-09-29 20:43:00,
2013-09-29 13:49:00,66.6,47.3,29.31,SE,140,0.0,0.0,50,0.00,,,0.00,meteohub,2013-09-29 20:49:00,
2013-09-29 13:55:00,67.3,46.9,29.31,ENE,60,3.0,0.0,48,0.00,,,0.00,meteohub,2013-09-29 20:55:00,
2013-09-29 14:01:00,67.3,45.9,29.31,NNE,29,0.0,0.0,46,0.00,,,0.00,meteohub,2013-09-29 21:01:00,
2013-09-29 14:07:00,67.1,45.7,29.31,North,5,0.0,4.0,46,0.00,,,0.00,meteohub,2013-09-29 21:07:00,
2013-09-29 14:12:00,67.3,46.4,29.28,NNW,340,0.0,4.0,47,0.00,,,0.00,meteohub,2013-09-29 21:12:00,
2013-09-29 14:17:00,67.3,45.9,29.28,North,353,0.0,4.0,46,0.00,,,0.00,meteohub,2013-09-29 21:17:00,
2013-09-29 14:22:00,67.3,46.4,29.28,NNW,344,0.0,4.0,47,0.00,,,0.00,meteohub,2013-09-29 21:22:00,
2013-09-29 14:27:00,67.3,44.6,29.28,North,357,0.0,4.0,44,0.00,,,0.00,meteohub,2013-09-29 21:27:00,
2013-09-29 14:32:00,66.7,44.1,29.28,NNE,19,0.0,4.0,44,0.00,,,0.00,meteohub,2013-09-29 21:32:00,
2013-09-29 14:37:00,66.6,44.1,29.28,NNW,341,2.0,4.0,44,0.00,,,0.00,meteohub,2013-09-29 21:37:00,
2013-09-29 14:42:00,66.7,44.1,29.28,North,357,4.0,4.0,44,0.00,,,0.00,meteohub,2013-09-29 21:42:00,
2013-09-29 14:47:00,66.6,44.1,29.28,NNW,341,3.0,4.0,44,0.00,,,0.00,meteohub,2013-09-29 21:47:00,
2013-09-29 14:52:00,66.7,44.1,29.28,North,357,0.0,4.0,44,0.00,,,0.00,meteohub,2013-09-29 21:52:00,
2013-09-29 14:57:00,66.7,43.5,29.28,North,1,0.0,4.0,43,0.00,,,0.00,meteohub,2013-09-29 21:57:00,
2013-09-29 15:02:00,66.7,43.5,29.28,North,4,0.0,4.0,43,0.00,,,0.00,meteohub,2013-09-29 22:02:00,
2013-09-29 15:07:00,66.7,43.5,29.28,NNW,345,0.0,5.0,43,0.00,,,0.00,meteohub,2013-09-29 22:07:00,
2013-09-29 15:12:00,66.7,43.5,29.28,NNE,18,0.0,5.0,43,0.00,,,0.00,meteohub,2013-09-29 22:12:00,
2013-09-29 15:17:00,66.7,43.5,29.28,North,0,0.0,2.0,43,0.00,,,0.00,meteohub,2013-09-29 22:17:00,
2013-09-29 15:22:00,66.7,43.5,29.28,North,0,0.0,2.0,43,0.00,,,0.00,meteohub,2013-09-29 22:22:00,
2013-09-29 15:27:00,66.7,43.5,29.28,NE,47,0.0,0.0,43,0.00,,,0.00,meteohub,2013-09-29 22:27:00,
2013-09-29 15:32:00,66.9,44.2,29.28,NW,304,0.0,0.0,44,0.00,,,0.00,meteohub,2013-09-29 22:32:00,
2013-09-29 15:37:00,66.9,43.7,29.28,North,353,0.0,0.0,43,0.00,,,0.00,meteohub,2013-09-29 22:37:00,
2013-09-29 15:42:00,66.9,43.7,29.28,North,357,0.0,0.0,43,0.00,,,0.00,meteohub,2013-09-29 22:42:00,
2013-09-29 15:47:00,67.1,43.9,29.28,North,357,0.0,0.0,43,0.00,,,0.00,meteohub,2013-09-29 22:47:00,
2013-09-29 15:52:00,66.9,43.2,29.28,North,7,0.0,0.0,42,0.00,,,0.00,meteohub,2013-09-29 22:52:00,
2013-09-29 15:57:00,66.7,43.5,29.28,North,350,0.0,0.0,43,0.00,,,0.00,meteohub,2013-09-29 22:57:00,
2013-09-29 16:02:00,66.7,43.5,29.28,ENE,61,3.0,0.0,43,0.00,,,0.00,meteohub,2013-09-29 23:02:00,
2013-09-29 16:07:00,66.6,44.1,29.28,NNW,345,0.0,3.0,44,0.00,,,0.00,meteohub,2013-09-29 23:07:00,
2013-09-29 16:12:00,66.6,44.6,29.28,NNE,27,0.0,3.0,45,0.00,,,0.00,meteohub,2013-09-29 23:12:00,
2013-09-29 16:17:00,66.2,44.8,29.28,NNE,26,0.0,3.0,46,0.00,,,0.00,meteohub,2013-09-29 23:17:00,
2013-09-29 16:22:00,65.7,45.5,29.28,NNE,18,0.0,3.0,48,0.00,,,0.00,meteohub,2013-09-29 23:22:00,
2013-09-29 16:27:00,65.1,46.6,29.28,North,0,5.0,5.0,51,0.00,,,0.00,meteohub,2013-09-29 23:27:00,
2013-09-29 16:32:00,64.9,46.9,29.28,NNE,16,0.0,4.0,52,0.00,,,0.00,meteohub,2013-09-29 23:32:00,
2013-09-29 16:37:00,64.6,47.1,29.28,NW,326,0.0,5.0,53,0.00,,,0.00,meteohub,2013-09-29 23:37:00,
2013-09-29 16:42:00,64.2,48.7,29.28,North,357,0.0,5.0,57,0.00,,,0.00,meteohub,2013-09-29 23:42:00,
2013-09-29 16:47:00,64.2,49.1,29.28,NE,39,0.0,3.0,58,0.00,,,0.00,meteohub,2013-09-29 23:47:00,
2013-09-29 16:52:00,64.0,49.5,29.28,NE,39,0.0,3.0,59,0.00,,,0.00,meteohub,2013-09-29 23:52:00,
2013-09-29 16:57:00,63.9,51.1,29.28,NE,42,0.0,0.0,63,0.00,,,0.00,meteohub,2013-09-29 23:57:00,
2013-09-29 17:02:00,63.7,50.0,29.28,NNE,31,0.0,0.0,61,0.00,,,0.00,meteohub,2013-09-30 00:02:00,
2013-09-29 17:07:00,63.7,50.4,29.28,NE,35,0.0,0.0,62,0.00,,,0.00,meteohub,2013-09-30 00:07:00,
2013-09-29 17:12:00,63.5,50.7,29.28,NE,35,0.0,0.0,63,0.00,,,0.00,meteohub,2013-09-30 00:12:00,
2013-09-29 17:17:00,63.7,50.9,29.28,West,267,0.0,0.0,63,0.00,,,0.00,meteohub,2013-09-30 00:17:00,
2013-09-29 17:22:00,63.9,51.4,29.28,West,267,0.0,0.0,64,0.00,,,0.00,meteohub,2013-09-30 00:22:00,
2013-09-29 17:27:00,63.9,51.8,29.28,West,267,0.0,0.0,65,0.00,,,0.00,meteohub,2013-09-30 00:27:00,
2013-09-29 17:32:00,63.9,51.8,29.28,West,267,0.0,0.0,65,0.00,,,0.00,meteohub,2013-09-30 00:32:00,
2013-09-29 17:37:00,63.9,51.8,29.28,West,267,0.0,0.0,65,0.00,,,0.00,meteohub,2013-09-30 00:37:00,
2013-09-29 17:42:00,63.9,51.8,29.28,West,267,0.0,0.0,65,0.00,,,0.00,meteohub,2013-09-30 00:42:00,
2013-09-29 17:47:00,63.9,51.8,29.28,West,274,0.0,0.0,65,0.00,,,0.00,meteohub,2013-09-30 00:47:00,
2013-09-29 17:53:00,63.7,51.3,29.28,North,0,0.0,0.0,64,0.00,,,0.00,meteohub,2013-09-30 00:53:00,
2013-09-29 17:59:00,63.5,51.1,29.28,North,0,0.0,0.0,64,0.00,,,0.00,meteohub,2013-09-30 00:59:00,
2013-09-29 18:05:00,63.5,50.7,29.28,North,0,0.0,0.0,63,0.00,,,0.00,meteohub,2013-09-30 01:05:00,
2013-09-29 18:11:00,63.5,50.7,29.28,North,0,0.0,0.0,63,0.00,,,0.00,meteohub,2013-09-30 01:11:00,
2013-09-29 18:17:00,63.5,50.7,29.28,North,0,0.0,0.0,63,0.00,,,0.00,meteohub,2013-09-30 01:17:00,
2013-09-29 18:22:00,63.5,50.7,29.28,North,0,0.0,0.0,63,0.00,,,0.00,meteohub,2013-09-30 01:22:00,
2013-09-29 18:27:00,63.5,51.1,29.28,North,0,0.0,0.0,64,0.00,,,0.00,meteohub,2013-09-30 01:27:00,
2013-09-29 18:32:00,63.5,51.1,29.28,North,0,0.0,0.0,64,0.00,,,0.00,meteohub,2013-09-30 01:32:00,
2013-09-29 18:37:00,63.1,50.7,29.28,NNE,19,0.0,0.0,64,0.00,,,0.00,meteohub,2013-09-30 01:37:00,
2013-09-29 18:42:00,63.1,50.7,29.28,NNE,19,0.0,0.0,64,0.00,,,0.00,meteohub,2013-09-30 01:42:00,
2013-09-29 18:47:00,63.0,51.4,29.28,NNW,346,0.0,0.0,66,0.00,,,0.00,meteohub,2013-09-30 01:47:00,
2013-09-29 18:52:00,62.8,50.9,29.28,NNE,13,0.0,0.0,65,0.00,,,0.00,meteohub,2013-09-30 01:52:00,
2013-09-29 18:57:00,62.6,50.2,29.28,NNE,15,0.0,0.0,64,0.00,,,0.00,meteohub,2013-09-30 01:57:00,
2013-09-29 19:02:00,62.6,49.8,29.28,NE,39,0.0,0.0,63,0.00,,,0.00,meteohub,2013-09-30 02:02:00,
2013-09-29 19:07:00,62.6,49.8,29.28,NNE,32,0.0,0.0,63,0.00,,,0.00,meteohub,2013-09-30 02:07:00,
2013-09-29 19:12:00,62.6,49.5,29.28,ENE,77,0.0,0.0,62,0.00,,,0.00,meteohub,2013-09-30 02:12:00,
2013-09-29 19:17:00,62.8,49.1,29.28,East,80,0.0,0.0,61,0.00,,,0.00,meteohub,2013-09-30 02:17:00,
2013-09-29 19:22:00,62.8,49.1,29.28,East,80,0.0,0.0,61,0.00,,,0.00,meteohub,2013-09-30 02:22:00,
2013-09-29 19:27:00,63.0,49.3,29.28,East,80,0.0,0.0,61,0.00,,,0.00,meteohub,2013-09-30 02:27:00,
2013-09-29 19:32:00,63.0,49.3,29.28,East,80,0.0,0.0,61,0.00,,,0.00,meteohub,2013-09-30 02:32:00,
2013-09-29 19:37:00,63.0,49.3,29.28,SSE,149,0.0,0.0,61,0.00,,,0.00,meteohub,2013-09-30 02:37:00,
2013-09-29 19:43:00,63.0,49.3,29.28,SW,223,0.0,0.0,61,0.00,,,0.00,meteohub,2013-09-30 02:43:00,
2013-09-29 19:49:00,63.0,49.8,29.28,WNW,288,4.0,4.0,62,0.00,,,0.00,meteohub,2013-09-30 02:49:00,
2013-09-29 19:54:00,62.8,50.4,29.28,West,269,0.0,4.0,64,0.00,,,0.00,meteohub,2013-09-30 02:54:00,
2013-09-29 20:00:00,62.6,50.2,29.28,West,269,0.0,4.0,64,0.00,,,0.00,meteohub,2013-09-30 03:00:00,
2013-09-29 20:06:00,62.6,50.7,29.28,WSW,247,0.0,4.0,65,0.00,,,0.00,meteohub,2013-09-30 03:06:00,
2013-09-29 20:11:00,62.6,50.7,29.28,WNW,290,0.0,0.0,65,0.00,,,0.00,meteohub,2013-09-30 03:11:00,
2013-09-29 20:17:00,62.4,50.9,29.28,WNW,290,0.0,4.0,66,0.00,,,0.00,meteohub,2013-09-30 03:17:00,
2013-09-29 20:22:00,62.4,50.9,29.28,WNW,290,0.0,4.0,66,0.00,,,0.04,meteohub,2013-09-30 03:22:00,
2013-09-29 20:27:00,62.4,50.9,29.28,WSW,244,0.0,0.0,66,0.04,,,0.04,meteohub,2013-09-30 03:27:00,
2013-09-29 20:32:00,62.2,50.7,29.28,WSW,248,0.0,0.0,66,0.04,,,0.04,meteohub,2013-09-30 03:32:00,
2013-09-29 20:37:00,62.1,50.9,29.28,SW,233,0.0,4.0,67,0.04,,,0.04,meteohub,2013-09-30 03:37:00,
2013-09-29 20:42:00,62.1,50.9,29.28,SW,233,0.0,4.0,67,0.04,,,0.04,meteohub,2013-09-30 03:42:00,
2013-09-29 20:47:00,61.9,50.7,29.28,SW,233,0.0,4.0,67,0.04,,,0.04,meteohub,2013-09-30 03:47:00,
2013-09-29 20:52:00,61.9,50.7,29.28,SW,233,0.0,4.0,67,0.04,,,0.04,meteohub,2013-09-30 03:52:00,
2013-09-29 20:57:00,61.7,51.1,29.28,SW,232,0.0,0.0,68,0.04,,,0.04,meteohub,2013-09-30 03:57:00,
2013-09-29 21:01:00,61.7,51.1,29.28,SW,232,0.0,0.0,68,0.04,,,0.04,meteohub,2013-09-30 04:01:00,
2013-09-29 21:02:00,61.7,51.1,29.28,SW,230,0.0,0.0,68,0.04,,,0.04,meteohub,2013-09-30 04:02:00,
2013-09-29 21:05:00,61.7,51.1,29.28,SW,233,0.0,0.0,68,0.04,,,0.04,meteohub,2013-09-30 04:05:00,
2013-09-29 21:06:00,61.7,51.1,29.28,SW,233,0.0,0.0,68,0.04,,,0.04,meteohub,2013-09-30 04:06:00,
2013-09-29 21:12:00,61.5,50.9,29.28,WNW,290,3.0,0.0,68,0.04,,,0.04,meteohub,2013-09-30 04:12:00,
2013-09-29 21:17:00,61.5,50.9,29.28,WNW,288,0.0,4.0,68,0.04,,,0.04,meteohub,2013-09-30 04:17:00,
2013-09-29 21:22:00,61.5,51.3,29.28,WNW,283,0.0,4.0,69,0.04,,,0.04,meteohub,2013-09-30 04:22:00,
2013-09-29 21:27:00,61.3,51.1,29.28,West,278,0.0,4.0,69,0.00,,,0.04,meteohub,2013-09-30 04:27:00,
2013-09-29 21:32:00,61.3,51.1,29.28,SW,235,0.0,4.0,69,0.00,,,0.04,meteohub,2013-09-30 04:32:00,
2013-09-29 21:37:00,61.3,51.1,29.28,WSW,245,0.0,3.0,69,0.00,,,0.04,meteohub,2013-09-30 04:37:00,
2013-09-29 21:43:00,61.2,51.3,29.28,WSW,245,0.0,3.0,70,0.00,,,0.04,meteohub,2013-09-30 04:43:00,
2013-09-29 21:48:00,61.2,51.3,29.28,WSW,241,0.0,0.0,70,0.00,,,0.04,meteohub,2013-09-30 04:48:00,
2013-09-29 21:54:00,61.2,51.3,29.28,WSW,243,0.0,0.0,70,0.00,,,0.04,meteohub,2013-09-30 04:54:00,
2013-09-29 22:00:00,61.2,51.6,29.28,WSW,258,0.0,0.0,71,0.00,,,0.04,meteohub,2013-09-30 05:00:00,
2013-09-29 22:06:00,61.0,51.4,29.28,SW,235,0.0,0.0,71,0.00,,,0.04,meteohub,2013-09-30 05:06:00,
2013-09-29 22:12:00,61.0,51.4,29.28,SSW,206,0.0,0.0,71,0.00,,,0.04,meteohub,2013-09-30 05:12:00,
2013-09-29 22:17:00,61.0,51.4,29.28,SSE,147,3.0,4.0,71,0.00,,,0.04,meteohub,2013-09-30 05:17:00,
2013-09-29 22:22:00,60.8,51.3,29.28,SW,235,0.0,4.0,71,0.00,,,0.04,meteohub,2013-09-30 05:22:00,
2013-09-29 22:27:00,60.6,52.0,29.28,North,357,0.0,4.0,73,0.00,,,0.04,meteohub,2013-09-30 05:27:00,
2013-09-29 22:32:00,60.6,52.0,29.28,WNW,288,2.0,4.0,73,0.00,,,0.04,meteohub,2013-09-30 05:32:00,
2013-09-29 22:37:00,60.6,52.0,29.28,WSW,254,0.0,4.0,73,0.00,,,0.04,meteohub,2013-09-30 05:37:00,
2013-09-29 22:42:00,60.6,52.0,29.28,SW,233,0.0,4.0,73,0.00,,,0.04,meteohub,2013-09-30 05:42:00,
2013-09-29 22:47:00,60.6,52.0,29.28,North,357,0.0,3.0,73,0.00,,,0.04,meteohub,2013-09-30 05:47:00,
2013-09-29 22:52:00,60.6,52.0,29.28,North,357,0.0,3.0,73,0.00,,,0.04,meteohub,2013-09-30 05:52:00,
2013-09-29 22:57:00,60.6,52.0,29.28,WSW,247,0.0,0.0,73,0.00,,,0.04,meteohub,2013-09-30 05:57:00,
2013-09-29 23:02:00,60.6,52.0,29.28,WSW,256,0.0,0.0,73,0.00,,,0.04,meteohub,2013-09-30 06:02:00,
2013-09-29 23:07:00,60.6,52.0,29.28,West,261,0.0,0.0,73,0.00,,,0.04,meteohub,2013-09-30 06:07:00,
2013-09-29 23:12:00,60.6,52.0,29.28,WNW,288,0.0,2.0,73,0.00,,,0.04,meteohub,2013-09-30 06:12:00,
2013-09-29 23:17:00,60.6,52.0,29.28,West,268,0.0,3.0,73,0.00,,,0.04,meteohub,2013-09-30 06:17:00,
2013-09-29 23:22:00,60.6,52.0,29.28,WSW,252,0.0,3.0,73,0.00,,,0.04,meteohub,2013-09-30 06:22:00,
2013-09-29 23:27:00,60.6,52.0,29.28,WSW,252,0.0,3.0,73,0.00,,,0.04,meteohub,2013-09-30 06:27:00,
2013-09-29 23:32:00,60.6,52.0,29.28,WSW,243,0.0,3.0,73,0.00,,,0.04,meteohub,2013-09-30 06:32:00,
2013-09-29 23:37:00,60.6,52.0,29.28,WSW,243,0.0,0.0,73,0.00,,,0.04,meteohub,2013-09-30 06:37:00,
2013-09-29 23:42:00,60.6,52.0,29.28,West,269,0.0,0.0,73,0.00,,,0.04,meteohub,2013-09-30 06:42:00,
2013-09-29 23:47:00,60.6,52.0,29.28,WSW,238,0.0,0.0,73,0.00,,,0.04,meteohub,2013-09-30 06:47:00,
2013-09-29 23:52:00,60.6,52.0,29.28,West,279,0.0,0.0,73,0.00,,,0.04,meteohub,2013-09-30 06:52:00,
2013-09-29 23:58:00,60.6,52.0,29.28,SSW,212,0.0,0.0,73,0.00,,,0.04,meteohub,2013-09-30 06:58:00,